Location: La Savane
(18.0962°N, 63.0646°W)
Time: 08:39:13
(UTC+00:00)

SWIFT - Pass Details

Date: 29 October 2020
Orbit: 545 x 560 km, 20.6° (Epoch: 28 November)

Event Time Altitude Azimuth Distance (km) Brightness Sun altitude
Rises 22:21:18 0° 272° (W) 2,723 7.7 -10.2°
Reaches altitude 10° 22:23:46 10° 262° (W) 1,829 6.6 -10.7°
Maximum altitude 22:27:34 32° 199° (SSW) 969 3.9 -11.6°
Drops below altitude 10° 22:31:22 10° 136° (SE) 1,826 4.7 -12.5°
Enters shadow 22:32:13 - 131° (SE) 2,121 4.9 -12.7°
